• In Moldova, Republic
  • List of Countries
  • For 7 days
  • Water Temperature
  • Satellite Maps
  • Weather Map
  • Weather Widgets
  • user-avatar
    Login

    Hourly Weather Gjirokaster

    Today, 28 March, Tuesday

    Time Temperature Precipitation Wind Pressure Humidity
    00:00 +1°C° 0.1 mm 2 mps 652 mmHg 86%
    01:00 +1°C° 0.1 mm 2 mps 652 mmHg 87%
    02:00 -1°C° 0 mm 2 mps 652 mmHg 87%
    03:00 -1°C° 0 mm 2 mps 651 mmHg 87%
    04:00 -1°C° 0 mm 3 mps 651 mmHg 87%
    05:00 -1°C° 0 mm 3 mps 652 mmHg 85%
    06:00 0°C° 0 mm 3 mps 652 mmHg 82%
    07:00 +1°C° 0 mm 3 mps 652 mmHg 80%
    08:00 +4°C° 0 mm 2 mps 653 mmHg 71%
    09:00 +6°C° 0 mm 2 mps 653 mmHg 62%
    10:00 +9°C° 0 mm 1 mps 654 mmHg 53%
    11:00 +9°C° 0 mm 2 mps 654 mmHg 50%
    12:00 +10°C° 0 mm 2 mps 654 mmHg 47%
    13:00 +12°C° 0 mm 2 mps 654 mmHg 44%
    14:00 +10°C° 0 mm 2 mps 654 mmHg 47%
    15:00 +9°C° 0 mm 3 mps 654 mmHg 49%
    16:00 +9°C° 0 mm 3 mps 653 mmHg 52%
    17:00 +7°C° 0 mm 3 mps 653 mmHg 60%
    18:00 +4°C° 0 mm 3 mps 653 mmHg 67%
    19:00 +2°C° 0 mm 3 mps 652 mmHg 75%
    20:00 +2°C° 0 mm 3 mps 653 mmHg 74%
    21:00 +1°C° 0 mm 3 mps 653 mmHg 73%
    22:00 +2°C° 0 mm 2 mps 653 mmHg 72%
    23:00 +2°C° 0 mm 2 mps 653 mmHg 71%

    Tomorrow, 29 March, Wednesday

    Time Temperature Precipitation Wind Pressure Humidity
    00:00 +1°C° 0 mm 2 mps 653 mmHg 69%
    01:00 +1°C° 0 mm 2 mps 653 mmHg 67%
    02:00 +1°C° 0 mm 2 mps 652 mmHg 66%
    03:00 +1°C° 0 mm 2 mps 652 mmHg 65%
    04:00 +1°C° 0 mm 2 mps 652 mmHg 64%
    05:00 +2°C° 0 mm 2 mps 653 mmHg 62%
    06:00 +3°C° 0 mm 2 mps 653 mmHg 60%
    07:00 +4°C° 0 mm 2 mps 653 mmHg 58%
    08:00 +6°C° 0 mm 2 mps 654 mmHg 51%
    09:00 +10°C° 0 mm 1 mps 655 mmHg 44%
    10:00 +12°C° 0 mm 1 mps 655 mmHg 37%
    11:00 +12°C° 0 mm 2 mps 655 mmHg 36%
    12:00 +13°C° 0 mm 2 mps 655 mmHg 34%
    13:00 +13°C° 0 mm 3 mps 655 mmHg 33%
    14:00 +12°C° 0 mm 3 mps 654 mmHg 35%
    15:00 +12°C° 0 mm 4 mps 654 mmHg 38%
    16:00 +11°C° 0 mm 4 mps 654 mmHg 40%
    17:00 +9°C° 0 mm 3 mps 653 mmHg 50%
    18:00 +5°C° 0 mm 3 mps 653 mmHg 59%
    19:00 +3°C° 0 mm 3 mps 652 mmHg 69%
    20:00 +4°C° 0 mm 2 mps 653 mmHg 68%
    21:00 +3°C° 0 mm 2 mps 653 mmHg 66%
    22:00 +3°C° 0 mm 2 mps 653 mmHg 65%
    23:00 +3°C° 0 mm 2 mps 653 mmHg 64%

    Day after tomorrow, 30 March, Thursday

    Time Temperature Precipitation Wind Pressure Humidity
    00:00 +3°C° 0 mm 2 mps 653 mmHg 62%
    01:00 +2°C° 0 mm 2 mps 653 mmHg 61%
    02:00 +2°C° 0 mm 2 mps 652 mmHg 61%
    03:00 +2°C° 0 mm 2 mps 652 mmHg 61%
    04:00 +2°C° 0 mm 2 mps 652 mmHg 61%
    05:00 +3°C° 0 mm 2 mps 653 mmHg 60%
    06:00 +4°C° 0 mm 2 mps 653 mmHg 60%
    07:00 +6°C° 0 mm 2 mps 654 mmHg 59%
    08:00 +8°C° 0 mm 2 mps 654 mmHg 53%
    09:00 +10°C° 0 mm 2 mps 655 mmHg 47%
    10:00 +13°C° 0 mm 2 mps 655 mmHg 41%
    11:00 +14°C° 0 mm 2 mps 655 mmHg 39%
    12:00 +13°C° 0 mm 3 mps 655 mmHg 37%
    13:00 +14°C° 0 mm 3 mps 655 mmHg 36%
    14:00 +14°C° 0 mm 4 mps 655 mmHg 38%
    15:00 +13°C° 0 mm 4 mps 654 mmHg 40%
    16:00 +13°C° 0 mm 4 mps 654 mmHg 42%
    17:00 +11°C° 0 mm 4 mps 654 mmHg 51%
    18:00 +7°C° 0 mm 4 mps 654 mmHg 60%
    19:00 +5°C° 0 mm 3 mps 653 mmHg 69%
    20:00 +5°C° 0 mm 3 mps 654 mmHg 70%
    21:00 +4°C° 0 mm 3 mps 654 mmHg 70%
    22:00 +4°C° 0 mm 3 mps 654 mmHg 71%
    23:00 +5°C° 0 mm 2 mps 654 mmHg 71%

    31 March, Friday

    Time Temperature Precipitation Wind Pressure Humidity
    00:00 +5°C° 0 mm 2 mps 654 mmHg 72%
    01:00 +4°C° 0 mm 2 mps 654 mmHg 72%
    02:00 +4°C° 0 mm 2 mps 654 mmHg 74%
    03:00 +4°C° 0 mm 2 mps 654 mmHg 75%
    04:00 +4°C° 0 mm 2 mps 654 mmHg 77%
    05:00 +5°C° 0 mm 2 mps 654 mmHg 75%
    06:00 +6°C° 0 mm 2 mps 654 mmHg 73%
    07:00 +7°C° 0 mm 2 mps 655 mmHg 71%
    08:00 +9°C° 0 mm 2 mps 655 mmHg 63%
    09:00 +12°C° 0 mm 1 mps 656 mmHg 55%
    10:00 +14°C° 0 mm 1 mps 657 mmHg 47%
    11:00 +15°C° 0.1 mm 1 mps 657 mmHg 46%
    12:00 +15°C° 0.1 mm 2 mps 656 mmHg 45%
    13:00 +16°C° 0.1 mm 2 mps 656 mmHg 44%
    14:00 +15°C° 0.3 mm 2 mps 656 mmHg 48%
    15:00 +14°C° 0.3 mm 2 mps 655 mmHg 53%
    16:00 +13°C° 0.3 mm 2 mps 655 mmHg 57%
    17:00 +10°C° 0.2 mm 2 mps 655 mmHg 65%
    18:00 +9°C° 0.2 mm 1 mps 654 mmHg 74%
    19:00 +7°C° 0.2 mm 1 mps 654 mmHg 82%
    20:00 +7°C° 0 mm 1 mps 654 mmHg 83%
    21:00 +6°C° 0 mm 1 mps 654 mmHg 84%
    22:00 +6°C° 0 mm 1 mps 654 mmHg 86%
    23:00 +6°C° 0 mm 1 mps 654 mmHg 86%

    1 April, Saturday

    Time Temperature Precipitation Wind Pressure Humidity
    00:00 +5°C° 0 mm 1 mps 654 mmHg 86%
    01:00 +5°C° 0 mm 1 mps 653 mmHg 86%
    02:00 +5°C° 0 mm 1 mps 653 mmHg 86%
    03:00 +5°C° 0 mm 1 mps 653 mmHg 85%
    04:00 +5°C° 0 mm 1 mps 653 mmHg 85%
    05:00 +6°C° 0 mm 1 mps 654 mmHg 81%
    06:00 +7°C° 0 mm 1 mps 654 mmHg 78%
    07:00 +8°C° 0 mm 1 mps 654 mmHg 75%
    08:00 +10°C° 0 mm 1 mps 655 mmHg 68%
    09:00 +12°C° 0 mm 1 mps 655 mmHg 62%
    10:00 +14°C° 0 mm 2 mps 656 mmHg 55%
    11:00 +14°C° 0.4 mm 2 mps 656 mmHg 56%
    12:00 +14°C° 0.4 mm 2 mps 655 mmHg 57%
    13:00 +14°C° 0.4 mm 2 mps 655 mmHg 57%
    14:00 +13°C° 0.8 mm 2 mps 655 mmHg 61%
    15:00 +13°C° 0.8 mm 2 mps 654 mmHg 64%
    16:00 +12°C° 0.8 mm 2 mps 654 mmHg 68%
    17:00 +10°C° 0.3 mm 1 mps 654 mmHg 75%
    18:00 +9°C° 0.3 mm 1 mps 654 mmHg 83%
    19:00 +7°C° 0.3 mm 1 mps 654 mmHg 90%
    20:00 +7°C° 0.1 mm 1 mps 654 mmHg 90%
    21:00 +5°C° 0.1 mm 2 mps 654 mmHg 90%
    22:00 +5°C° 0.1 mm 2 mps 654 mmHg 90%
    23:00 +5°C° 0 mm 2 mps 654 mmHg 90%

    2 April, Sunday

    Time Temperature Precipitation Wind Pressure Humidity
    00:00 +4°C° 0 mm 2 mps 654 mmHg 91%
    01:00 +4°C° 0 mm 2 mps 654 mmHg 91%
    02:00 +4°C° 0 mm 2 mps 653 mmHg 90%
    03:00 +3°C° 0 mm 2 mps 653 mmHg 90%
    04:00 +3°C° 0 mm 2 mps 653 mmHg 89%
    05:00 +4°C° 0 mm 2 mps 654 mmHg 84%
    06:00 +5°C° 0 mm 2 mps 654 mmHg 80%
    07:00 +6°C° 0 mm 2 mps 655 mmHg 75%
    08:00 +8°C° 0 mm 2 mps 655 mmHg 66%
    09:00 +10°C° 0 mm 2 mps 656 mmHg 58%
    10:00 +13°C° 0 mm 2 mps 656 mmHg 50%
    11:00 +14°C° 0 mm 2 mps 656 mmHg 47%
    12:00 +14°C° 0 mm 2 mps 656 mmHg 45%
    13:00 +15°C° 0 mm 2 mps 656 mmHg 42%
    14:00 +14°C° 0 mm 2 mps 656 mmHg 46%
    15:00 +13°C° 0 mm 2 mps 655 mmHg 50%
    16:00 +13°C° 0 mm 2 mps 655 mmHg 53%
    17:00 +9°C° 0 mm 2 mps 654 mmHg 64%
    18:00 +8°C° 0 mm 1 mps 654 mmHg 75%
    19:00 +6°C° 0 mm 1 mps 654 mmHg 86%
    20:00 +5°C° 0 mm 1 mps 654 mmHg 85%
    21:00 +5°C° 0 mm 1 mps 654 mmHg 85%
    22:00 +4°C° 0 mm 1 mps 654 mmHg 84%
    23:00 +4°C° 0 mm 1 mps 653 mmHg 81%
    Show more